Content
SEND FEEDBACK

Daily
Averages
Monthly
Summary
United Kingdom

ANCHESTER, ENGLAND


Home > Europe > United Kingdom > England
Elevation: 69 feet     Latitude: 53 09N     Longitude: 000 41W

WEATHER
 
SELECT A DAY
Number of Records: 68,837;   Date Range: 8/10/96 - 10/24/14
 
SHARE

PRINT THIS DATA

[ ← Previous Day ]
WEATHER ALMANAC - SEPTEMBER 25, 2013
[ Next Day → ]
[ °C ]   °F
Weather ElementAverageHighLow
Temperature58.1 °F62.6 °F (3:22 pm)53.6 °F (11:50 pm)
Dewpoint55.1 °F57.2 °F (9:15 am)50 °F (11:50 pm)
Humidity89.7 %100 % (1:50 am)67 % (6:50 pm)
Barometer29.88 in29.95 in (11:50 pm)29.86 in (6:50 am)
Wind Speed5.6 mph17.3 mph (9:50 pm)
Weather ElementAverage
Visibility2.4 mi
Wind DirectionSSE (172.3 °)

Weather ElementTotal
Precipitation---
Heating Degree Days6.9 (Base 65)
Growing Degree Days8.1 (Base 50)
Averaged from 40 records on September 25, 2013
WEATHER CONDITIONS BREAKOUT
WIND DIRECTION BREAKOUT
WEATHER BY HOUR - SEPTEMBER 25, 2013
[ °C ]   °F
Local TimeTemperatureDewpointHumidityBarometerVisibilityWind DirectionWind SpeedGust SpeedPrecipitationEventsConditions
12:50 AM55.4 °F53.6 °F94 %29.92 in1.2 miSE (140°)5.8 mphMostly Cloudy
1:50 AM55.4 °F55.4 °F100 %29.89 in1.2 miSSE (150°)9.2 mphMostly Cloudy
2:50 AM55.4 °F55.4 °F100 %29.89 in0.9 miSouth (190°)5.8 mphMostly Cloudy
3:50 AM56.0 °F56.0 °F100 %29.91 in1.0 miWest (260°)3.5 mphFogPartial Fog
3:50 AM55.4 °F55.4 °F100 %29.89 in0.6 miWest (260°)3.5 mphFogFog
4:19 AM57.2 °F55.4 °F94 %29.89 in0.1 miWNW (300°)1.2 mphFogFog
4:50 AM55.4 °F55.4 °F100 %29.89 in0.1 miSouth (170°)2.3 mphFogFog
5:50 AM55.4 °F55.4 °F100 %29.89 in0.1 miWNW (290°)4.6 mphFogFog
6:50 AM56.0 °F55.0 °F97 %29.88 in0.0 miESE (120°)2.3 mphFogPartial Fog
6:50 AM55.4 °F55.4 °F100 %29.86 in0.1 miESE (120°)2.3 mphFogFog
7:50 AM55.4 °F55.4 °F100 %29.86 in0.1 miSouth (170°)3.5 mphFogFog
8:50 AM55.4 °F55.4 °F100 %29.86 in0.2 miSSW (200°)3.5 mphFogFog
9:15 AM57.2 °F57.2 °F100 %29.86 in0.6 miWNW (300°)2.3 mphOvercast
9:39 AM57.2 °F57.2 °F100 %29.86 in1.1 miNE (40°)1.2 mphOvercast
9:50 AM58.0 °F57.0 °F96 %29.86 in1.0 miNE (40°)1.2 mphFogLight Fog
9:50 AM57.2 °F57.2 °F100 %29.86 in1.1 miNE (40°)1.2 mphOvercast
10:50 AM57.2 °F57.2 °F100 %29.86 in0.7 miWNW (290°)5.8 mphOvercast
11:16 AM57.2 °F57.2 °F100 %29.86 in0.3 miWNW (290°)4.6 mphFogFog
11:50 AM57.2 °F57.2 °F100 %29.86 in0.7 miWNW (290°)4.6 mphOvercast
12:50 PM59.0 °F55.4 °F88 %29.86 in1.6 miNW (320°)3.5 mphRainLight Rain
12:50 PM58.0 °F56.0 °F90 %29.88 in2.0 miNW (320°)3.5 mphRainLight Rain
1:50 PM59.0 °F55.4 °F88 %29.86 in1.7 miNorth (10°)3.5 mphRainLight Rain
2:11 PM59.0 °F55.4 °F88 %29.86 inNW (320°)4.6 mphHaze
2:50 PM60.8 °F55.4 °F82 %29.86 in2.8 miNW (320°)3.5 mphHaze
3:22 PM62.6 °F55.4 °F77 %29.86 in3.1 miNNW (330°)6.9 mphHaze
3:50 PM62.6 °F53.6 °F72 %29.86 in4.3 miNNW (340°)5.8 mphHaze
3:50 PM62.0 °F54.0 °F68 %29.87 in4.0 miNNW (340°)5.8 mphHaze
4:36 PM62.6 °F55.4 °F77 %29.86 in5.0 miNW (320°)3.5 mphHaze
4:50 PM62.6 °F55.4 °F77 %29.86 in5.0 miWNW (300°)3.5 mphHaze
5:50 PM62.6 °F55.4 °F77 %29.86 in4.3 miNE (40°)8.1 mphHaze
6:22 PM62.6 °F53.6 °F72 %29.86 in4.3 miNNE (20°)4.6 mphHaze
6:50 PM62.0 °F54.0 °F67 %29.88 in4.0 miNorth (10°)4.6 mphHaze
6:50 PM62.6 °F53.6 °F72 %29.86 in4.3 miNorth (10°)4.6 mphHaze
7:17 PM62.6 °F53.6 °F72 %29.89 in3.7 miNorth (10°)5.8 mphHaze
7:50 PM59.0 °F55.4 °F88 %29.89 in2.5 miNE (40°)10.4 mphHaze
8:50 PM57.2 °F53.6 °F88 %29.92 in3.7 miNE (40°)8.1 mphHaze
9:50 PM55.0 °F54.0 °F94 %29.94 in7.0 miNNE (30°)17.3 mphOvercast
9:50 PM55.4 °F53.6 °F94 %29.92 in6.2 miNNE (30°)17.3 mphOvercast
10:50 PM55.4 °F51.8 °F88 %29.92 in6.2 miNE (40°)17.3 mphMostly Cloudy
11:50 PM53.6 °F50.0 °F88 %29.95 in6.2 miNE (40°)11.5 mphScattered Clouds
Hourly data recorded from EGXW, located miles away from Anchester, England







STORIES FROM OUR PARTNERS